Regional Weather Roundup
Issued by NWS Midland/Odessa, TX

Skip options and go directly to product.
Home | Oldest Version | Next Version | Current Version | All | Text Only | Save Text | Print | Product List | Glossary On

Skip product version selection by date and time.   
257
ASUS44 KMAF 262302
RWRMAF
MIDLAND AREA WEATHER ROUNDUP
NATIONAL WEATHER SERVICE MIDLAND TX
600 PM CDT TUE AUG 26 2014

...IN SOUTHWEST TEXAS AND SOUTHEAST NEW MEXICO...

CITY           SKY/WX    TMP DP  RH WIND       PRES   REMARKS
ALPINE         PTSUNNY   87  48  26 E10       30.16S
ANDREWS        FAIR      91  52  26 SE6       30.04F
ARTESIA        NOT AVBL
BIG SPRING     FAIR     100  50  19 SE10G20   30.02S
CARLSBAD       PTSUNNY   84  62  47 W7        30.04S
DRYDEN           N/A    101  50  18 SE13G20   29.96F
FORT STOCKTON  FAIR      93  50  23 SE9       30.02S
GUAD PASS      LGT RAIN  71  63  75 VRB7      30.23R
HOBBS          MOSUNNY   88  50  27 SE12      30.07F
MARFA          FAIR      79  61  53 N12       30.16F
MIDLAND AIRPK  FAIR      97  48  18 SE9       30.02S
MIDLAND INTL   FAIR      96  54  24 SE14G20   30.01F
ODESSA         FAIR      95  51  22 SE8       30.02F
PECOS          FAIR      96  51  21 SE14G20   29.98S
PRESIDIO       FAIR      94  55  26 CALM      29.95F
SEMINOLE       FAIR      92  50  23 SE7       30.06F
SNYDER         PTSUNNY   96  55  24 E10       30.00F
WINK           FAIR      96  50  20 SE14      29.98F
$$
...OTHER STATIONS IN TEXAS...

CITY           SKY/WX    TMP DP  RH WIND       PRES   REMARKS
ABILENE        PTSUNNY   99  57  24 SE7       29.97S
AMARILLO       PTSUNNY   86  59  39 S18       30.12R
AUSTIN         PTSUNNY   94  68  42 NE15      29.91F
BROWNSVILLE    FAIR      92  73  53 E13G22    29.89S HX 100
CORPUS CHRISTI FAIR      90  72  55 E17       29.90S
DALLAS FTW     FAIR      96  67  38 E12       29.94F HX 100
DEL RIO        FAIR     101  59  24 E13       29.89F HX 101
EL PASO        PTSUNNY   87  57  35 S5        30.04F
HOUSTON INT    NOT AVBL
LUBBOCK        PTSUNNY   93  55  27 S8        30.06F
SAN ANGELO     FAIR      97  58  27 E9        29.97F
SAN ANTONIO    PTSUNNY   98  62  30 VRB3      29.90F
WACO           FAIR      94  63  35 E12       29.93S
WICHITA FALLS  NOT AVBL
$$
...OTHER LOCATIONS IN NEW MEXICO...

CITY           SKY/WX    TMP DP  RH WIND       PRES   REMARKS
ALAMAGORDO     PTSUNNY   81  55  41 CALM      30.08F
ALBUQUERQUE    CLOUDY    79  52  38 W10       30.20S THUNDER
CANNON AFB     PTSUNNY   77  64  65 SE10      30.13F
CLOVIS           N/A     84  54  34 S16       30.15R
HOLLOMAN AFB   NOT AVBL
ROSWELL        LGT RAIN  75  66  73 W21       30.09R
RUIDOSO        LGT RAIN  59  57  94 E3        30.34S
SANTA FE       LGT RAIN  64  58  80 S12G22    30.27S
TRUTH OR CONSE SUNNY     81  53  37 S3        30.12F
TUCUMCARI      MOSUNNY   87  55  33 SE25G32   30.08S
$$

USA.gov is the U.S. government's official web portal to all federal, state and local government web resources and services.